283  
ASUS43 KFGF 241431  
RWRFGF  
PRAIRIE TO PINES WEATHER ROUNDUP  
NATIONAL WEATHER SERVICE EASTERN NORTH DAKOTA/GRAND FORKS ND  
900 AM CDT SUN OCT 24 2021  
 
**SATELLITE DATA USED TO AUGMENT SKY COVER AT AUTOMATED STATIONS**  
***** WEATHER ACROSS EASTERN NORTH DAKOTA *****  
 
CITY SKY/WX TMP DP RH WIND PRES REMARKS
 
GRAND FORKS MOCLDY 35 30 82 SE7 30.02R  
GRAND FRKS AFB MOCLDY 29 28 93 CALM 30.03R  
DEVILS LAKE CLOUDY 34 30 85 E8 30.00R  
FARGO CLOUDY 39 31 72 E9 30.00R  
WAHPETON ARPT FAIR 41 34 75 E9 29.96F  

 
 
***** WEATHER ACROSS CENTRAL AND WESTERN NORTH DAKOTA *****  
 
CITY SKY/WX TMP DP RH WIND PRES REMARKS
 
BISMARCK LGT RAIN 40 38 93 E10 29.89R  
MINOT LGT RAIN 39 35 86 E12 29.92R  
JAMESTOWN CLOUDY 37 34 89 E10 29.93R  
MINOT AFB LGT RAIN 36 33 90 SE13 29.91R  
GARRISON N/A 38 37 97 E10 29.89R  
WILLISTON NOT AVBL  
DICKINSON LGT RAIN 38 36 92 E6 29.81R FOG  
HETTINGER CLOUDY 40 38 93 E5 29.82R FOG  

 
 
***** OTHER AIRPORT OBSERVATIONS IN OUR AREA *****  
 
CITY SKY/WX TMP DP RH WIND PRES REMARKS
 
WALHALLA FAIR 27 27 100 NW5 30.06R WCI 21  
GRAFTON AIRPOR FAIR 32 32 100 E5 30.06R  
VALLEY CITY AR FLURRIES 37 37 100 E9 29.98S  
CANDO NOT AVBL  
CAVALIER APRT FAIR 30 30 100 CALM 30.07R  
GWINNER CLOUDY 39 39 100 E8 29.95R  
ROLLA PTSUNNY 30 30 100 E6 30.00R WCI 24  
***** THE ABOVE OBSERVATIONS ARE NON NWS ARE NOT QUALITY  
CONTROLLED AND MAY MIS-REPORT RAIN FOR SNOW...  

 
 
***** WEATHER ACROSS NORTHERN MINNESOTA *****  
 
CITY SKY/WX TMP DP RH WIND PRES REMARKS
 
FLAG ISLAND CLOUDY 37 30 75 E8 30.09R  
WARROAD CLOUDY 37 34 87 SE14 30.09R  
ROSEAU MOCLDY 37 36 93 E8G16 30.07S  
HALLOCK FAIR 34 32 93 E10 30.05S  
THF RVR FALLS FAIR 33 30 88 E8 30.05R  
BAUDETTE CLOUDY 31 31 100 E3 30.09R  
WASKISH FAIR 30 28 93 E3 30.07R  
CROOKSTON FAIR 34 30 86 SE9 30.05R  
STEPHEN NDAWN N/A 34 30 86 MISG N/A  
GREENBUSH NDAW N/A 32 30 93 MISG N/A  

 
***** WEATHER ACROSS CENTRAL AND WEST MINNESOTA *****  
 
CITY SKY/WX TMP DP RH WIND PRES REMARKS
 
FOSSTON FAIR 36 30 80 E6 30.04R  
BEMIDJI FAIR 34 34 99 S5 30.06R  
PARK RAPIDS FAIR 34 29 82 E7 30.03R  
ELBOW LAKE CLOUDY 40 33 77 E9 29.98S  
WADENA FAIR 30 28 93 E3 30.02R  
DETROIT LAKES FAIR 37 30 75 SE9 30.02R  
MOORHEAD FAIR 39 34 81 E5 30.01R  
FERGUS FALLS MOCLDY 41 30 65 E8 29.95S  
MORRIS MN CLOUDY 39 30 70 E14 29.97S  
STAPLES FAIR 36 32 87 CALM 30.02S  

 
***** WEATHER ELSEWHERE ACROSS MINNESOTA *****  
 
CITY SKY/WX TMP DP RH WIND PRES REMARKS
 
DULUTH PTSUNNY 34 31 88 NE3 30.05R  
INTRNTL FALLS FLURRIES 35 31 85 E8 30.09R  
ELY PTSUNNY 30 30 100 CALM 30.09R  
CLOQUET CLOUDY 30 30 100 CALM 30.05R  
WHEATON CLOUDY 39 36 87 E10 29.97S  
BRAINERD FAIR 33 29 85 NE6 30.04R  
HIBBING CLOUDY 31 31 100 NE6 30.08R FOG  
ALEXANDRIA CLOUDY 38 30 73 E13 29.98F  
SAINT CLOUD CLOUDY 36 30 79 E6 30.01R  
MINNEAPOLIS PTSUNNY 40 30 67 E7 30.00R  

 
 
***** WEATHER ACROSS SOUTH DAKOTA *****  
 
CITY SKY/WX TMP DP RH WIND PRES REMARKS
 
SIOUX FALLS LGT RAIN 44 33 65 E14 29.79F  
BROOKINGS PTSUNNY 42 33 70 E12G20 29.84S  
WATERTOWN CLOUDY 41 33 73 E13G24 29.86S  
HURON HVY RAIN 42 38 85 E14 29.83S FOG  
SISSETON N/A 42 37 82 E10 29.92F  
ABERDEEN CLOUDY 43 37 79 E12 29.88S  
MITCHELL LGT RAIN 44 36 73 SE6 29.82R  
PIERRE CLOUDY 43 37 79 E14 29.78R  
MOBRIDGE LGT RAIN 42 37 82 E10 29.81R  
RAPID CITY CLOUDY 42 41 96 NW8 29.80R  

 
 
***** SOME WEATHER IN NEARBY STATES *****  
 
CITY SKY/WX TMP DP RH WIND PRES REMARKS
 
GLASGOW MT FAIR 35 33 92 E12 29.77R  
GREAT FALLS MT FAIR 38 29 70 S9 29.72S  
CHEYENNE WY FAIR 37 27 67 NW5 29.88R  
SCOTTSBLUFF NE FAIR 42 35 76 NW8 29.84R  
OMAHA NE LGT RAIN 48 45 89 E20G30 29.69F  
DES MOINES IA RAIN 44 42 93 E7 29.79F FOG  
DAVENPORT IA HVY RAIN 44 41 89 E15 29.90S FOG  
CHICAGO IL LGT RAIN 47 41 80 SE3 29.97R  
EAU CLAIRE WI FAIR 33 31 92 NE3 30.03R  
LA CROSSE WI FAIR 39 33 79 CALM 30.02R  

 
 
***** SOME NATIONAL WEATHER *****  
 
CITY SKY/WX TMP DP RH WIND PRES REMARKS
 
LA GUARDIA NY FAIR 54 39 57 NW7 30.18S  
RALEIGH NC FAIR 63 55 75 CALM 30.19R  
ATLANTA GA PTSUNNY 61 53 75 E6 30.13S  
NEW ORLEANS LA PTSUNNY 76 71 85 E10 29.95S  
OKLAHOMA CITY PTSUNNY 69 62 78 S20 29.70R  
ALBUQUERQUE NM FAIR 48 28 46 SE6 30.03R  
SALT LAKE CITY MOCLDY 42 41 96 SE8 29.88S  
LOS ANGELES CA MOCLDY 60 56 86 VRB3 29.92R  
BOISE ID CLOUDY 51 40 65 SE17G24 29.66F  
SEATTLE WA CLOUDY 58 42 55 SE15G38 29.12F  

 
 
*** WEATHER ACROSS MANITOBA...SASKATCHEWAN AND ONTARIO ***  
***ONTARIO***  
 
CITY SKY/WX TMP DP RH WIND PRES REMARKS
 
GERALDTON DRIZZLE 34 34 100 N6 30.07R FOG  
THUNDER BAY MOSUNNY 32 32 100 S7 30.11R  
SIOUX LOOKOUT FLURRIES 30 28 93 E5 30.13R  
TORONTO MOSUNNY 46 37 71 W2 30.07S  
BIG TROUT LK LGT RAIN 32 32 100 NE7 30.21S  
PICKLE LAKE CLOUDY 30 30 100 NE8 30.15R WCI 23  
DRYDEN CLOUDY 30 28 93 NE12G18 30.10S WCI 21  
KENORA PTCLDY 32 30 93 E7 30.10R  

 
*** MANITOBA***  
 
CITY SKY/WX TMP DP RH WIND PRES REMARKS
 
BRANDON PTCLDY 27 27 100 E15G21 30.02R WCI 15  
DAUPHIN CLOUDY 37 30 75 SE8 30.06R  
ISLAND LAKE FLURRIES 28 27 93 SE7 30.18S WCI 21  
PILOT MOUND N/A 28 28 100 E10 N/A WCI 19  
THE PAS CLOUDY 37 32 81 SE10 30.07R  
THOMPSON CLOUDY 27 27 100 S3 30.17S  
WINNIPEG PTCLDY 28 27 93 E3 30.09R  
LYNN LAKE FLURRIES 30 30 100 SE7 30.07S WCI 23  
CHURCHILL FOG 21 21 100 SW5 30.19R VSB 1/2 WCI 15  
GILLAM PTCLDY 21 21 100 S5 30.21R WCI 15  

 
***SASKATCHEWAN***  
 
CITY SKY/WX TMP DP RH WIND PRES REMARKS
 
ESTEVAN LGT RAIN 34 32 93 E14 29.90R WCI 24  
KINDERSLEY PTCLDY 36 34 93 SE12 29.70R  
LLOYDMINSTER PTCLDY 36 34 93 S8 29.66R  
PRINCE ALBERT MOCLDY 36 30 80 SE8 29.90R  
REGINA LGT RAIN 34 32 93 SE16G24 29.87R WCI 23  
YORKTON CLEAR 28 27 93 SE9 29.97R WCI 20  
N. BATTLEFORD CLOUDY 39 36 87 SE15 29.77R  
LA RONGE MOCLDY 36 30 80 SE17G30 29.93R  
SASKATOON LGT RAIN 37 36 93 SE12G20 29.81R  
SWIFT CURRENT FOG 34 34 100 SE13 29.73R VSB 3/4 WCI 25  

 
NOTE: THESE ARE AUTOMATED STATIONS WITH LIMITED QUALITY CONTROL  
"FAIR" INDICATES FEW OR NO CLOUDS BELOW 12,000 FEET WITH NO  
SIGNIFICANT WEATHER AND/OR S TO VISIBILITY
.  
SKY/WX - SKY CONDITION AND SIGNIFICANT WEATHER.  
TMP - AIR TEMPERATURE. DP - DEWPOINT TEMPERATURE.  
RH - RELATIVE HUMIDITY. PRES - PRESSURE.  
HX - HEAT INDEX. WCI - WIND CHILL INDEX.  
$  
 
 
CLICK HERE TO GO TO PREVIOUS BULLETINS.

The Nexlab ND Page
The Nexlab MN Page Main Text Page